Location: Escoheag
(41.6037°N, 71.7648°W)
Time: 13:24:11
(UTC+00:00)

Daily predictions for brighter satellites

Satellite Brightness Start Highest point End
(mag) Time Altitude Azimuth Time Altitude Azimuth Time Altitude Azimuth
BlueWalker 3 2.8 21:42:48 10° NW 21:45:59 28° NNE 21:49:09 10° E
Cosmos 1626 Rocket 3.8 21:41:52 10° N 21:46:01 44° ENE 21:50:07 10° SSE
Gbstr 26 Del rocket 4.5 21:42:52 10° S 21:46:01 20° SE 21:48:56 10° E
Cosmos 1743 3.6 21:44:20 10° NNE 21:46:50 20° ENE 21:49:20 10° SE
CBERS-1 4.0 21:42:33 10° SSE 21:47:39 82° ENE 21:52:47 10° NNW
SMAP 3.3 21:43:59 10° SE 21:48:25 46° ENE 21:52:51 10° N
Cosmos 1484 Rocket 2.7 21:45:33 10° S 21:49:03 80° WSW 21:52:35 10° NNW
Iridium 51 3.8 21:47:35 10° S 21:50:39 79° W 21:53:49 10° N
Cosmos 2151 4.0 21:48:31 10° NNE 21:51:57 25° ENE 21:55:23 10° SE
Landsat 7 4.2 21:50:11 10° SE 21:54:31 40° ENE 21:58:52 10° N
Cosmos 1461 3.9 21:51:25 10° S 21:54:36 25° ESE 21:57:50 10° ENE
Lacrosse 4 Rocket 3.4 21:51:31 10° WSW 21:54:50 24° NW 21:58:08 10° N
Thor Agena Rocket 3.5 21:53:55 10° SSE 21:59:08 76° ENE 22:04:20 10° N
Meteor 1-28 Rocket 3.6 21:56:31 10° N 21:59:49 57° WNW 22:03:05 10° SSW
Cosmos 1544 Rocket 3.5 21:55:42 10° S 22:00:01 70° E 22:04:26 10° NNE
SL-08 ROCKET BODY 4.4 21:57:31 10° N 22:03:25 64° E 22:09:23 10° SSE
UNK 3.7 22:00:20 10° NNE 22:04:56 82° ESE 22:09:29 10° SSW
Lacrosse 5 rocket 3.1 22:02:55 10° WNW 22:05:42 19° NNW 22:08:26 10° NNE
SAR-Lupe-4 3.7 22:05:48 10° SSE 22:09:14 47° ENE 22:12:40 10° N
Cosmos 1733 1.2 22:09:52 10° N 22:11:45 67° E 22:13:37 10° SSE
IGS 5A 4.1 22:07:53 10° S 22:11:46 57° W 22:15:41 10° NNW
Cosmos 1503 Rocket 4.3 22:08:18 10° S 22:13:20 48° ESE 22:18:21 10° NNE
Intercosmos 24 3.8 22:10:53 10° N 22:14:43 77° W 22:18:15 10° S
Cosmos 1656 3.8 22:09:52 10° SSW 22:15:28 79° WNW 22:21:10 10° NNE
SAR-Lupe-1 4.2 22:13:12 10° SSE 22:16:41 51° ENE 22:20:12 10° N
Cosmos 2297 Rocket 2.3 22:12:31 10° NNW 22:18:02 51° ENE 22:23:32 10° SE
SKYMED 2 4.4 22:15:10 10° NNE 22:19:03 31° E 22:22:54 10° SSE
NOSS 3-2 (C) 3.0 22:14:54 10° SSW 22:19:41 65° ESE 22:24:53 12° NE
COSMO-SKYMED 1 3.8 22:18:12 16° ENE 22:19:58 20° E 22:23:02 10° SE
IRIDIUM 104 4.3 22:15:38 10° N 22:20:48 60° E 22:25:57 10° SSE
NOSS 3-2 (A) 3.9 22:16:36 10° WSW 22:21:22 48° NW 22:27:03 10° NNE
Cosmos 1782 3.1 22:19:03 10° SSW 22:22:36 60° W 22:26:10 10° N
Cosmos 1602 Rocket 3.5 22:19:35 10° N 22:23:57 60° E 22:28:14 10° SSE
CZ-2D R/B 4.4 22:21:33 10° SE 22:25:04 27° ENE 22:28:36 10° NNE
MOS 1 Rocket 3.4 22:21:18 10° SSE 22:25:57 59° ENE 22:30:56 10° N
BREEZE M DEB (TANK) 2.2 22:23:28 10° WSW 22:26:06 48° NNW 22:27:01 25° NE
Cosmos 405 Rocket 3.7 22:25:04 10° NNW 22:28:10 41° W 22:31:12 10° SSW
IRIDIUM 114 4.2 22:24:43 10° N 22:29:57 73° E 22:35:09 10° S
YAOGAN 1 3.4 22:29:31 10° SE 22:33:06 27° ENE 22:36:41 10° N
Cosmos 1777 Rocket 4.0 22:29:47 10° SSW 22:35:03 90° SW 22:40:20 10° NNE
SJ-12 3.9 22:35:08 10° S 22:38:53 76° WSW 22:42:41 10° NNW
IRIDIUM 103 4.3 22:33:52 10° N 22:39:08 89° E 22:44:21 10° S
Cosmos 1933 3.1 22:37:49 10° S 22:41:36 65° E 22:44:57 13° NNE
Cosmos 1980 Rocket 3.2 22:37:19 10° SSE 22:41:52 26° ESE 22:43:08 24° E
IRS-P3 4.0 22:36:51 10° SSE 22:42:10 81° ENE 22:47:30 10° NNW
Cosmos 1867 4.1 22:38:17 10° NNW 22:43:20 37° NE 22:46:14 22° ESE
SJ-6F 4.2 22:40:17 10° SSE 22:44:14 86° ENE 22:48:14 10° NNW
Cosmos 1953 Rocket 4.3 22:42:07 10° NNE 22:46:02 29° ENE 22:49:55 10° SE
Cosmos 724 4.2 22:41:25 10° NNW 22:47:28 70° NE 22:53:18 10° SE
CZ-4C R/B 3.0 22:45:51 10° NNW 22:52:56 61° NE 23:01:35 10° SE
Aureole 1 Rocket 4.3 22:53:25 10° SSE 22:55:25 22° SE 22:55:25 22° SE
Cosmos 1825 Rocket 3.4 22:53:53 10° N 22:58:14 69° E 23:02:30 10° SSE
Cosmos 2263 Rocket 3.1 22:54:28 10° N 22:58:58 28° NE 22:58:58 28° NE
USA 290 2.7 22:57:32 10° NNW 23:00:45 62° WSW 23:03:57 10° S
USA 81 4.3 22:58:43 10° N 23:03:43 43° E 23:08:42 10° SSE
Helios 1A Rocket 3.4 23:05:51 33° SSE 23:05:51 33° SSE 23:08:02 10° S
ARIANE 5 R/B 3.9 23:02:04 10° SSW 23:06:46 40° W 23:11:34 10° NNW
Cosmos 2058 Rocket 3.9 23:04:15 10° SSE 23:07:16 33° SE 23:07:16 33° SE
NOAA 6 4.1 23:04:07 10° SE 23:08:59 47° ENE 23:13:53 10° N
Cosmos 2227 Rocket 2.2 23:03:28 10° NNW 23:09:01 56° ENE 23:12:44 21° SE
SPOT 1/Viking Rocket 3.6 23:05:18 10° SSE 23:10:30 83° WSW 23:15:45 10° NNW
Cosmos 2266 Rocket 4.5 23:06:52 10° NNW 23:12:54 59° W 23:18:49 10° S
Cosmos 1607 4.0 23:08:19 10° NW 23:14:34 81° WSW 23:20:52 10° SSE
Cosmos 990 Rocket 4.0 23:11:59 10° SSW 23:17:06 77° WNW 23:20:05 26° NNE
IRAS Rocket 4.1 23:13:25 10° SSE 23:18:53 72° ENE 23:24:21 10° NNW
USA 238 DEB 3.5 23:13:23 10° SSW 23:19:12 56° ESE 23:20:47 44° ENE
USA 238 3.5 23:13:29 10° SSW 23:19:18 55° ESE 23:20:51 45° ENE
ATLAS CENTAUR R/B 2.3 23:16:59 10° NW 23:19:55 33° WSW 23:21:23 21° SSW
NOSS 2-3 (C) 3.7 23:20:07 10° SSW 23:22:41 45° SSW 23:22:41 45° SSW
BlueWalker 3 2.6 23:20:09 10° WNW 23:23:39 47° SW 23:24:05 44° SSW
Cosmos 1697 Rocket 3.0 23:18:11 10° SW 23:23:44 64° WNW 23:27:11 24° NNE
USA 215 4.1 23:26:28 30° NNE 23:27:13 30° NNE 23:32:47 10° NW
Cosmos 1553 Rocket 4.0 23:22:35 10° SSE 23:28:23 51° E 23:28:23 51° E
Cosmos 1461 4.3 23:27:49 10° WSW 23:31:15 29° NW 23:32:06 27° NNW
Gbstr 26 Del rocket 3.2 23:28:08 10° WSW 23:31:38 53° WNW 23:31:38 53° WNW
Resurs 1-3 3.9 23:31:22 10° S 23:35:37 64° W 23:39:55 10° NNW
Cosmos 1076 Rocket 3.7 23:33:02 10° NNW 23:37:19 68° W 23:41:35 10° S
Meteor 1-26 Rocket 4.0 23:32:34 10° S 23:37:35 67° SE 23:37:35 67° SE
Cosmos 1244 Rocket 4.3 23:46:31 10° N 23:52:50 83° E 23:59:02 10° S
COSMO-SKYMED 1 4.0 23:54:32 30° NW 23:55:19 32° WNW 23:58:59 10° SW
